Retour au catalogue

FENGYUN 1C DEB

ActifSSO
NORAD 38159·DEBRIS·🇨🇳 China

Lancé May 10, 1999 depuis Taiyuan Satellite Launch Center

Loading…

Prochains Passages (prochaines 24 heures)

TLE

PériméSource: Space-Track

Époque: Aug 31, 2026, 12:10 UTC

1 38159U 99025ERG 26243.50695702  .00000549  00000-0  37318-3 0  9995
2 38159  99.2924 146.2234 0056481 340.8724  19.0320 14.03807553867841

Suivez FENGYUN 1C DEB en temps réel avec AllMySat

Download on the App Store